This demonstration page uses our WeatherBlox Daily Observations layout. Learn more.

Left ArrowRight Arrow

41.86663, -103.66717

Hourly Observations for October 7, 2015

Temp ( °F °C ) Dew Point ( °F °C ) Humidity (%) Winds ( mph kmh ) Pressure ( in mb ) Visibility ( mi km ) Precip ( " mm )
12:53 am 00:53 Cloudy with Light Rain 55 12.8 54 12.2 96 96 SE 6 9 30.11 1020 3 5 0.08 2.03
1:53 am 01:53 Cloudy 56 13.3 55 12.8 97 97 SE 7 11 30.07 1018 7 11 0.01 0.25
2:53 am 02:53 Mostly Cloudy with Mist and Fog 55 12.8 54 12.2 96 96 ESE 8 13 30.08 1019 5 8 N/A
3:53 am 03:53 Partly Cloudy with Mist and Fog 53 11.7 52 11.1 96 96 ESE 3 6 30.06 1018 5 8 N/A
4:53 am 04:53 Cloudy 54 12.2 52 11.1 93 93 SE 7 11 30.06 1018 8 13 N/A
5:53 am 05:53 Clear with Mist and Fog 51 10.6 50 10 96 96 N N/A 30.07 1018 4 6 N/A
6:53 am 06:53 Clear 54 12.2 51 10.6 90 90 SE 12 19 30.07 1018 9 14 N/A
7:53 am 07:53 Sunny 55 12.8 52 11.1 90 90 SSE 8 13 30.08 1019 9 14 N/A
8:53 am 08:53 Sunny 58 14.4 54 12.2 87 87 SE 12 19 30.07 1018 8 13 N/A
9:53 am 09:53 Sunny 62 16.7 54 12.2 75 75 SSE 9 15 30.06 1018 9 14 N/A
10:53 am 10:53 Sunny 67 19.4 53 11.7 61 61 SSW 6 9 30.04 1017 10 16 N/A
11:53 am 11:53 Sunny 71 21.7 50 10 47 47 VRB 5 7 30.01 1016 10 16 N/A
12:53 pm 12:53 Sunny 74 23.3 49 9.4 41 41 WNW 7 11 29.99 1016 10 16 N/A
1:53 pm 13:53 Sunny 76 24.4 47 8.3 36 36 SW 5 7 29.96 1014 7 11 N/A
2:53 pm 14:53 Sunny 76 24.4 48 8.9 37 37 VRB 6 9 29.94 1014 10 16 N/A
3:53 pm 15:53 Sunny 78 25.6 46 7.8 32 32 WNW 7 11 29.93 1014 10 16 N/A
4:53 pm 16:53 Sunny 78 25.6 47 8.3 33 33 VRB 5 7 29.92 1013 10 16 N/A
5:53 pm 17:53 Sunny 74 23.3 52 11.1 46 46 N N/A 29.93 1014 9 14 N/A
6:53 pm 18:53 Clear 66 18.9 49 9.4 54 54 NNE 8 13 29.97 1015 10 16 N/A
7:53 pm 19:53 Clear 61 16.1 48 8.9 63 63 NNE 9 15 29.99 1016 10 16 N/A
8:53 pm 20:53 Hazy 57 13.9 46 7.8 67 67 WSW 5 7 30.01 1016 6 10 N/A
9:53 pm 21:53 Clear 55 12.8 46 7.8 72 72 N N/A 30.02 1017 7 11 N/A
10:53 pm 22:53 Clear 52 11.1 46 7.8 80 80 N 6 9 30.03 1017 10 16 N/A
11:53 pm 23:53 Clear 48 8.9 45 7.2 89 89 NW 6 9 30.03 1017 10 16 N/A

Powered by AerisWeather